| time (UTC) | temp C | wind direction | speed KPH | gust KPH | rain 1hr cm | rain 24hr cm | rain mn cm | humidity % | barometer mb |
| 20260503054536 | 11 | 260 | 11.3 | 20.9 | 0.00 | 0.00 | 0.00 | 92 | 1010.4 |
| 20260503053029 | 11 | 257 | 9.7 | 20.9 | 0.00 | 0.00 | 0.00 | 92 | 1010.3 |
| 20260503051528 | 11 | 232 | 9.7 | 17.7 | 0.00 | 0.00 | 0.00 | 92 | 1010.1 |
| 20260503050023 | 10 | 255 | 9.7 | 17.7 | 0.00 | 0.00 | 0.00 | 92 | 1010.3 |
| 20260503044522 | 10 | 234 | 9.7 | 17.7 | 0.00 | 0.00 | 0.00 | 93 | 1010.3 |
| 20260503043034 | 10 | 218 | 6.4 | 12.9 | 0.00 | 0.00 | 0.00 | 93 | 1010.4 |
| 20260503041520 | 10 | 216 | 6.4 | 11.3 | 0.00 | 0.00 | 0.00 | 93 | 1010.3 |
| 20260503040016 | 10 | 229 | 4.8 | 11.3 | 0.00 | 0.00 | 0.00 | 93 | 1010.5 |
| 20260503034517 | 10 | 221 | 8.0 | 16.1 | 0.00 | 0.00 | 0.00 | 93 | 1010.5 |
| 20260503033020 | 10 | 241 | 9.7 | 16.1 | 0.00 | 0.00 | 0.00 | 93 | 1010.4 |
| 20260503031514 | 10 | 253 | 8.0 | 17.7 | 0.00 | 0.00 | 0.00 | 93 | 1010.1 |
| 20260503030012 | 10 | 236 | 6.4 | 14.5 | 0.00 | 0.00 | 0.00 | 93 | 1010.2 |
| 20260503024522 | 10 | 228 | 6.4 | 17.7 | 0.00 | 0.00 | 0.00 | 93 | 1010.4 |
| 20260503023009 | 10 | 251 | 6.4 | 16.1 | 0.00 | 0.00 | 0.00 | 92 | 1010.5 |
| 20260503021527 | 10 | 227 | 9.7 | 17.7 | 0.00 | 0.00 | 0.00 | 92 | 1010.6 |
| 20260503020008 | 10 | 258 | 6.4 | 14.5 | 0.00 | 0.00 | 0.00 | 92 | 1010.7 |
| 20260503014507 | 10 | 245 | 8.0 | 14.5 | 0.00 | 0.00 | 0.00 | 92 | 1010.6 |
| 20260503013008 | 10 | 267 | 9.7 | 17.7 | 0.00 | 0.00 | 0.00 | 92 | 1010.6 |
| 20260503011506 | 10 | 253 | 11.3 | 25.7 | 0.00 | 0.00 | 0.00 | 92 | 1010.7 |
| 20260503010002 | 10 | 262 | 11.3 | 19.3 | 0.00 | 0.00 | 0.00 | 92 | 1010.7 |
| 20260503004609 | 10 | 249 | 11.3 | 19.3 | 0.00 | 0.00 | 0.00 | 91 | 1010.4 |
| 20260503003111 | 11 | 267 | 14.5 | 20.9 | 0.00 | 0.00 | 0.00 | 91 | 1010.5 |
| 20260503001612 | 11 | 253 | 6.4 | 17.7 | 0.00 | 0.00 | 0.00 | 91 | 1010.5 |
| 20260503000051 | 11 | 217 | 8.0 | 12.9 | 0.00 | 0.00 | 0.00 | 91 | 1010.6 |
| 20260502234548 | 11 | 215 | 8.0 | 11.3 | 0.00 | 0.00 | 0.00 | 90 | 1010.5 |
| 20260502233047 | 12 | 213 | 4.8 | 11.3 | 0.00 | 0.00 | 0.00 | 90 | 1010.6 |
| 20260502231545 | 12 | 215 | 8.0 | 14.5 | 0.00 | 0.00 | 0.00 | 89 | 1010.7 |
| 20260502230045 | 12 | 209 | 9.7 | 16.1 | 0.00 | 0.00 | 0.00 | 88 | 1010.8 |
| 20260502224541 | 12 | 223 | 11.3 | 14.5 | 0.00 | 0.00 | 0.00 | 87 | 1010.8 |
| 20260502223037 | 13 | 217 | 9.7 | 14.5 | 0.00 | 0.00 | 0.00 | 86 | 1010.9 |
| 20260502221534 | 13 | 212 | 9.7 | 12.9 | 0.00 | 0.00 | 0.00 | 84 | 1010.8 |
| 20260502220035 | 13 | 202 | 6.4 | 11.3 | 0.00 | 0.00 | 0.00 | 82 | 1010.7 |
| 20260502214529 | 14 | 209 | 8.0 | 11.3 | 0.00 | 0.00 | 0.00 | 80 | 1010.9 |
| 20260502213031 | 14 | 210 | 8.0 | 11.3 | 0.00 | 0.00 | 0.00 | 79 | 1011.0 |
| 20260502211527 | 15 | 209 | 6.4 | 9.7 | 0.00 | 0.00 | 0.00 | 79 | 1011.2 |
| 20260502210027 | 15 | 216 | 4.8 | 9.7 | 0.00 | 0.00 | 0.00 | 79 | 1011.2 |
| 20260502204534 | 15 | 214 | 3.2 | 8.0 | 0.00 | 0.00 | 0.00 | 79 | 1011.2 |
| 20260502203033 | 15 | 227 | 4.8 | 9.7 | 0.00 | 0.00 | 0.00 | 76 | 1011.3 |
| 20260502201527 | 15 | 236 | 3.2 | 8.0 | 0.00 | 0.00 | 0.00 | 73 | 1011.4 |
| 20260502200048 | 16 | 235 | 3.2 | 6.4 | 0.00 | 0.00 | 0.00 | 72 | 1011.5 |
| 20260502194524 | 16 | 236 | 1.6 | 6.4 | 0.00 | 0.00 | 0.00 | 71 | 1011.4 |
| 20260502193025 | 16 | 240 | 4.8 | 6.4 | 0.00 | 0.00 | 0.00 | 72 | 1011.4 |
| 20260502191524 | 16 | 233 | 4.8 | 8.0 | 0.00 | 0.00 | 0.00 | 71 | 1011.4 |
| 20260502190023 | 17 | 227 | 3.2 | 12.9 | 0.00 | 0.00 | 0.00 | 71 | 1011.4 |
| 20260502184525 | 17 | 245 | 12.9 | 19.3 | 0.00 | 0.00 | 0.00 | 73 | 1011.8 |
| 20260502183022 | 17 | 267 | 14.5 | 22.5 | 0.00 | 0.00 | 0.00 | 71 | 1011.8 |
| 20260502181526 | 18 | 269 | 12.9 | 22.5 | 0.00 | 0.00 | 0.00 | 64 | 1011.6 |
| 20260502163019 | 22 | 245 | 16.1 | 30.6 | 0.00 | 0.00 | 0.00 | 35 | 1011.2 |
| 20260502161515 | 22 | 228 | 17.7 | 30.6 | 0.00 | 0.00 | 0.00 | 33 | 1011.3 |
| 20260502151512 | 24 | 243 | 14.5 | 25.7 | 0.00 | 0.00 | 0.00 | 37 | 1011.7 |
| 20260502130105 | 23 | 161 | 11.3 | 24.1 | 0.00 | 0.00 | 0.00 | 52 | 1013.0 |
| 20260502123050 | 23 | 225 | 16.1 | 27.4 | 0.00 | 0.00 | 0.00 | 42 | 1013.3 |
| 20260502121558 | 23 | 236 | 12.9 | 25.7 | 0.00 | 0.00 | 0.00 | 46 | 1013.5 |
| 20260502120105 | 23 | 219 | 16.1 | 30.6 | 0.00 | 0.00 | 0.00 | 44 | 1013.7 |
| 20260502114548 | 22 | 232 | 12.9 | 27.4 | 0.00 | 0.00 | 0.00 | 44 | 1013.9 |
| 20260502113054 | 22 | 246 | 16.1 | 25.7 | 0.00 | 0.00 | 0.00 | 45 | 1014.2 |
| 20260502111544 | 22 | 202 | 16.1 | 25.7 | 0.00 | 0.00 | 0.00 | 49 | 1014.3 |
| 20260502110037 | 22 | 239 | 14.5 | 25.7 | 0.00 | 0.00 | 0.00 | 54 | 1014.5 |
| 20260502104534 | 21 | 196 | 11.3 | 22.5 | 0.00 | 0.00 | 0.00 | 58 | 1014.6 |
| 20260502103055 | 21 | 167 | 12.9 | 20.9 | 0.00 | 0.00 | 0.00 | 61 | 1014.7 |
| 20260502101538 | 20 | 166 | 12.9 | 24.1 | 0.00 | 0.00 | 0.00 | 61 | 1014.8 |
| 20260502091514 | 19 | 163 | 12.9 | 17.7 | 0.00 | 0.00 | 0.00 | 69 | 1015.2 |
| 20260502070035 | 15 | 189 | 12.9 | 17.7 | 0.00 | 0.00 | 0.00 | 77 | 1016.1 |